www.pogodaiklimat.ru

Погода и климат >> Архив погоды >> Австралия >> Квинсленд >> Блэколл


ПОГОДА в Блэколле

  • Прогноз погоды в Блэколле
  • Монитор погоды в Блэколле

АРХИВ ПОГОДЫ в Блэколле

Время (UTC), дата Ветер
(напр.,м/с)
 
Видим.   Явления Облачность Т
(С)
Тd
(С)
f
(%)
Тe
(С)
Тes
(С)
Комфортность P
(гПа)
Po
(гПа)
Тmin
(С)
Tmax
(С)
R
(мм)
R24
(мм)
S
(см)
14 14.08 СВ 2 н/о н/о +12.3 -2.3 36 +12 +12 1024.0 990.7 +24.9
17 14.08 В 3 н/о н/о +7.8 -2.8 47 +6 +6 1023.1 989.9
20 14.08 ЮВ 2 н/о н/о +5.3 -2.5 57 +3 +3 1024.0 990.7
23 14.08 СВ 6 н/о н/о +17.8 +8.4 54 +17 +17 1025.5 992.2
02 15.08 С 5 н/о н/о +23.6 +3.0 26 +23 +23 комфорт 1024.4 991.1 +4.2
05 15.08 С 5 н/о н/о +23.8 +4.2 28 +23 +23 комфорт 1021.0 987.8
08 15.08 С 3 н/о н/о +22.7 +5.2 32 +23 +23 комфорт 1020.7 987.5
11 15.08 В 3 н/о н/о +17.6 +4.2 41 +18 +18 1021.9 988.7
14 15.08 В 3 н/о н/о +17.8 +5.4 44 +18 +18 1021.7 988.5 +25.4
17 15.08 В 2 н/о н/о +14.3 +5.1 54 +14 +14 1021.0 987.8
20 15.08 СВ 3 н/о н/о +14.8 +6.9 59 +14 +14 1021.4 988.2
23 15.08 С 6 н/о н/о +19.7 +9.6 52 +21 +21 комфорт 1022.8 989.6
02 16.08 З 4 н/о н/о +23.3 +7.4 36 +24 +24 комфорт 1021.1 987.9 +14.2
05 16.08 СЗ 3 н/о н/о +26.6 +6.1 27 +26 +26 жарко 1018.3 985.2
08 16.08 штиль 0 н/о н/о +24.0 +5.8 31 +24 +24 комфорт 1018.2 985.1
11 16.08 В 2 н/о н/о +21.0 +5.8 37 +23 +23 комфорт 1019.3 986.2
14 16.08 СВ 3 н/о н/о +18.0 +5.6 44 +18 +18 1018.5 985.4 +27.2
17 16.08 В 1 н/о н/о +15.3 +5.8 53 +17 +17 1018.1 985.0
20 16.08 штиль 0 н/о н/о +13.8 +5.4 57 +14 +14 1019.2 986.1
23 16.08 С 6 н/о н/о +21.0 +9.9 49 +23 +23 комфорт 1020.6 987.4
02 17.08 С 4 н/о н/о +26.5 +7.5 30 +26 +26 жарко 1018.6 985.5 +12.0
05 17.08 СВ 3 н/о н/о +27.6 +4.6 23 +26 +26 жарко 1016.1 983.1
08 17.08 С 2 н/о н/о +24.5 +4.8 28 +24 +24 комфорт 1016.0 983.0
11 17.08 СВ 3 н/о н/о +19.6 +3.7 35 +20 +20 1017.6 984.5
14 17.08 СВ 3 н/о н/о +17.0 +4.3 43 +17 +17 1017.6 984.5 +28.9
17 17.08 З 1 н/о н/о +14.8 +3.9 48 +15 +15 1017.0 984.0
20 17.08 штиль 0 н/о н/о +10.9 +3.7 61 +11 +11 1017.8 984.7
23 17.08 С 5 н/о н/о +22.0 +7.4 39 +23 +23 комфорт 1019.4 986.3
02 18.08 С 6 н/о н/о +28.2 +5.7 24 +27 +27 жарко 1017.5 984.4 +10.5
05 18.08 З 5 н/о н/о +30.1 +1.5 16 +28 +28 жарко 1015.2 982.2
08 18.08 З 3 н/о н/о +27.2 +0.8 18 +25 +25 комфорт 1015.4 982.4
11 18.08 штиль 0 н/о н/о +17.7 +0.8 32 +18 +18 1016.5 983.5
14 18.08 З 3 н/о н/о +17.9 +2.2 35 +18 +18 1017.6 984.5 +30.9
17 18.08 Ю 3 н/о н/о +15.0 +1.2 39 +15 +15 1018.6 985.5
20 18.08 Ю 4 н/о н/о +13.9 -0.9 36 +13 +13 1020.5 987.3
23 18.08 Ю 7 н/о н/о +16.2 -4.4 24 +15 +15 1022.4 989.2
02 19.08 ЮВ 6 н/о н/о +20.8 -3.6 19 +20 +20 1021.8 988.6 +13.5
05 19.08 Ю 7 н/о н/о +22.4 -6.4 14 +21 +21 комфорт 1019.9 986.8
08 19.08 Ю 5 н/о н/о +19.8 -6.7 16 +19 +19 1021.2 988.0
11 19.08 Ю 4 н/о н/о +15.0 -6.5 22 +14 +14 1024.1 990.8
14 19.08 Ю 4 н/о н/о +11.4 -6.0 29 +10 +10 1025.4 992.1 +23.7
17 19.08 Ю 5 н/о н/о +10.1 -4.6 35 +8 +8 1025.1 991.8
20 19.08 Ю 5 н/о н/о +8.9 -5.7 35 +6 +6 1025.4 992.1
23 19.08 ЮВ 10 н/о н/о +12.6 -5.4 28 +10 +10 1027.3 993.9
02 20.08 ЮВ 9 н/о н/о +17.0 -7.5 18 +16 +16 1026.1 992.8 +8.4
05 20.08 Ю 8 н/о н/о +21.0 -11.7 10 +20 +20 1023.6 990.3
08 20.08 ЮВ 6 н/о н/о +18.5 -12.5 11 +18 +18 1024.5 991.2
11 20.08 Ю 5 н/о н/о +14.3 -10.4 17 +13 +13 1026.3 993.0
14 20.08 Ю 3 н/о н/о +8.8 -9.1 27 +7 +7 1026.2 992.9 +21.6
17 20.08 ЮВ 3 н/о н/о +6.7 -8.0 34 +4 +4 1025.2 991.9
20 20.08 ЮВ 4 н/о н/о +5.9 -7.0 39 +3 +3 1025.6 992.3
23 20.08 ЮВ 8 н/о н/о +13.7 -3.5 30 +12 +12 1027.3 993.9
02 21.08 ЮВ 6 н/о н/о +19.1 -4.4 20 +19 +19 1025.6 992.3 +5.6
05 21.08 Ю 5 н/о н/о +22.3 -7.4 13 +21 +21 комфорт 1022.3 989.1
08 21.08 Ю 4 н/о н/о +20.5 -9.8 12 +20 +20 1022.3 989.1
11 21.08 Ю 2 н/о н/о +10.2 -8.4 26 +9 +9 1023.3 990.1

 

Местоположение метеостанции Блэколл (Квинсленд, Австралия): широта -24.42 долгота 145.43 высота над уровнем моря 282 м.

В архиве по умолчанию представлена погода в Блэколле за последнюю неделю. Архивные данные за месяц целиком и за предыдущие месяцы, начиная с января 2011 года, Вы можете получить, выбрав интересующий диапазон дат из раскрывающегося списка и нажав кнопку "Ввод!".


*Определитесь, кто Вы:
робот инопланетянин человек

Внимание! Время в таблицах - всемирное. Для получения местного времени необходимо прибавить поправку, которая равна 10 ч.

Смотрите также архив погоды в соседних городах и на ближайших метеорологических станциях:

Погода в Лонгриче (Квинсленд, Австралия) (161 км)
Погода в Лочингтоне (Квинсленд, Австралия) (219 км)
Погода в Чарвилле (Квинсленд, Австралия) (237 км)
Погода в Клермоне (Квинсленд, Австралия) (289 км)
Погода в Эмералде (Квинсленд, Австралия) (295 км)
Погода в Роллстоне (Квинсленд, Австралия) (324 км)
Погода в Уинтоне (Квинсленд, Австралия) (331 км)
Погода в Роме (Квинсленд, Австралия) (411 км)
Погода в Хьюэндене (Квинсленд, Австралия) (419 км)
Погода в Таргоминде (Квинсленд, Австралия) (428 км)

Пояснения к столбцам:

Ветер - указаны скорость ветра в м/с - средняя за 10 мин, порывы в срок и между сроками (в фигурных скобках) и направление, откуда дует ветер: С - северный, СВ - северо-восточный, В - восточный, ЮВ - юго-восточный, Ю - южный, ЮЗ - юго-западный, З - западный, СЗ - северо-западный.
Видимость - горизонтальная дальность видимости в метрах или километрах. При видимости от 1 до 10 км при отсутствии осадков обычно наблюдается дымка, при ухудшении видимости до 1 км и менее - туман. В сухую погоду видимость может ухудшаться дымом, пылью или мглою.
Явления - указаны атмосферные явления, наблюдавшиеся в срок или в последний час перед сроком; фигурными скобками обозначены явления, наблюдавшиеся между сроками (за 1-3 часа до срока); квадратными скобками обозначены град или гололедные отложения с указанием их диаметра в мм.
Облачность - указаны через наклонную черту общая и нижняя облачность в баллах и высота нижней границы облаков в метрах; квадратными скобками обозначены формы облаков: Ci - перистые, Cs - перисто-слоистые, Cc - перисто-кучевые, Ac - высококучевые, As - высокослоистые, Sc - слоисто-кучевые, Ns - слоисто-дождевые, Cu - кучевые, Cb - кучево-дождевые. Подробнее классификацию облаков см. в Атласе облаков (PDF).
T - Температура воздуха - температура, измеренная на высоте 2 м над землей.
Td - Температура точки росы - температура, при понижении до которой содержащийся в воздухе водяной пар достигнет насыщения.
f - Относительная влажность воздуха - влажноcть воздуха, измеренная на высоте 2 м над землей.
Te - Эффективная температура - температура, которую ощущает одетый по сезону человек в тени. Характеристика душности погоды. При расчете учитывается влияние влажности воздуха и скорости ветра на теплоощущения человека.
Tes - Эффективная температура на солнце - температура, которую ощущает человек, с поправкой на солнечный нагрев. Характеристика знойности погоды. Зависит от высоты солнца над горизонтом, облачности и скорости ветра. Ночью, в пасмурную погоду, а также при ветре 12 м/с и более поправка равна нулю.
P - Атмосферное давление - приведенное к уровню моря атмосферное давление.
Po - Атмосферное давление - измеренное на уровне метеостанции атмосферное давление.
Tmin - Минимальная температура - минимум температуры воздуха на высоте 2 м над землей.
Tmax - Максимальная температура - максимум температуры воздуха на высоте 2 м над землей.
R - Количество осадков - Количество выпавших осадков за период времени, мм. При наведении курсора мыши на число - период времени, за который выпало указанное количество осадков.
R24 - Количество осадков - Количество выпавших осадков за 24 часа, мм.
S - Снежный покров - Высота снежного покрова, см. При наведении курсора мыши на число - состояние снежного покрова и степень покрытия местности в баллах.